{"data":{"norad_id":64275,"epoch":"2026-05-25T02:50:55.724064Z","epoch_age_seconds":55034,"freshness":"FRESH","line1":"1 64275U 25120V   26145.11870051  .00015372  00000+0  52986-3 0  9995","line2":"2 64275  53.1587 121.9735 0001210 106.7712 253.3422 15.30212027 55555","mean_motion":15.30212027,"eccentricity":0.000121,"inclination_deg":53.1587,"raan_deg":121.9735,"arg_perigee_deg":106.7712,"mean_anomaly_deg":253.3422,"bstar":0.00052986,"rev_number":5555,"period_min":94.104606067117,"perigee_km":474.34990794515,"apogee_km":476.00841045567,"semimajor_km":6853.3161592004,"source":"CELESTRAK","updated_at":"2026-05-25T13:38:20.361945Z"}}